DW0494 Weather Reports


time (UTC)temp
C
wind
direction
speed
KPH
gust
KPH
rain 1hr
cm
rain 24hr
cm
rain mn
cm
humidity
%
barometer
mb
20260507131406 21 122 1.6 4.8 0.00 0.03 0.03 70 1020.7
20260507130904 20 75 0.0 3.2 0.00 0.03 0.03 73 1020.7
20260507130403 20 45 1.6 3.2 0.00 0.03 0.03 72 1020.8
20260507125903 20 54 0.0 1.6 0.00 0.03 0.03 74 1020.8
20260507125405 20 54 0.0 12.9 0.00 0.03 0.03 73 1020.7
20260507124905 20 4 1.6 12.9 0.00 0.03 0.03 71 1020.6
20260507123904 20 50 3.2 9.7 0.00 0.03 0.03 70 1020.7
20260507123403 20 51 4.8 9.7 0.00 0.03 0.03 69 1021.0
20260507122903 20 52 0.0 3.2 0.00 0.03 0.03 72 1021.2
20260507121903 19 243 0.0 1.6 0.00 0.03 0.03 78 1021.5
20260507121405 18 257 0.0 1.6 0.00 0.03 0.03 79 1021.6
20260507120403 18 2 0.0 3.2 0.00 0.03 0.03 82 1021.6
20260507115906 18 356 0.0 4.8 0.00 0.03 0.03 84 1021.7
20260507115403 18 22 1.6 4.8 0.00 0.03 0.03 84 1021.7
20260507114904 17 43 0.0 3.2 0.03 0.03 0.03 84 1021.8
20260507114403 17 33 0.0 3.2 0.03 0.03 0.03 83 1021.9
20260507113905 18 19 1.6 3.2 0.03 0.03 0.03 83 1021.9
20260507113404 18 30 0.0 1.6 0.03 0.03 0.03 83 1022.1
20260507112903 18 348 0.0 0.0 0.03 0.03 0.03 83 1022.1
20260507105905 18 347 0.0 1.6 0.03 0.03 0.03 79 1022.1
20260507105403 18 283 0.0 0.0 0.03 0.03 0.03 80 1022.2
20260507104903 18 283 0.0 1.6 0.00 0.00 0.00 79 1022.2
20260507104405 19 282 0.0 1.6 0.00 0.00 0.00 78 1022.1
20260507103905 19 294 0.0 1.6 0.00 0.00 0.00 76 1022.2
20260507103403 19 295 0.0 3.2 0.00 0.00 0.00 75 1022.2
20260507102904 19 295 0.0 3.2 0.00 0.00 0.00 71 1022.1
20260507102403 20 314 1.6 3.2 0.00 0.00 0.00 69 1022.1
20260507101904 20 285 0.0 3.2 0.00 0.00 0.00 70 1022.1
20260507100903 20 257 0.0 8.0 0.00 0.00 0.00 68 1022.1
20260507100403 20 243 3.2 8.0 0.00 0.00 0.00 70 1022.1
20260507095905 20 249 3.2 8.0 0.00 0.00 0.00 68 1022.1
20260507095404 20 245 1.6 4.8 0.00 0.00 0.00 67 1022.1
20260507094905 20 240 0.0 4.8 0.00 0.00 0.00 67 1021.9
20260507093405 20 238 1.6 4.8 0.00 0.00 0.00 64 1021.8
20260507092904 20 269 0.0 1.6 0.00 0.00 0.00 64 1021.7
20260507092406 20 287 0.0 1.6 0.00 0.00 0.00 62 1021.5
20260507091904 20 296 0.0 1.6 0.00 0.00 0.00 61 1021.4
20260507091404 20 350 0.0 3.2 0.00 0.00 0.00 64 1021.4
20260507090904 20 213 0.0 3.2 0.00 0.00 0.00 64 1021.3
20260507090405 20 268 0.0 3.2 0.00 0.00 0.00 65 1021.3
20260507084404 20 219 0.0 1.6 0.00 0.00 0.00 66 1021.1
20260507083903 20 217 0.0 3.2 0.00 0.00 0.00 65 1021.1
20260507083403 20 221 0.0 3.2 0.00 0.00 0.00 68 1021.1
20260507082905 20 238 0.0 4.8 0.00 0.00 0.00 68 1021.1
20260507082404 20 244 1.6 4.8 0.00 0.00 0.00 68 1021.0
20260507081904 20 237 0.0 4.8 0.00 0.00 0.00 69 1021.0
20260507081405 20 229 1.6 4.8 0.00 0.00 0.00 67 1021.0
20260507080903 20 249 0.0 3.2 0.00 0.00 0.00 68 1020.9
20260507075903 20 220 0.0 3.2 0.00 0.00 0.00 67 1020.8
20260507075403 20 196 0.0 3.2 0.00 0.00 0.00 69 1020.7
20260507074905 20 251 1.6 3.2 0.00 0.00 0.00 68 1020.6
20260507074404 20 192 0.0 1.6 0.00 0.00 0.00 68 1020.5
20260507073903 20 211 0.0 1.6 0.00 0.00 0.00 67 1020.3
20260507073404 20 214 0.0 3.2 0.00 0.00 0.00 69 1020.3
20260507072905 20 209 0.0 3.2 0.00 0.00 0.00 70 1020.4
20260507071904 20 238 1.6 3.2 0.00 0.00 0.00 69 1020.2
20260507071404 20 238 0.0 3.2 0.00 0.00 0.00 70 1020.3
20260507070404 20 277 1.6 3.2 0.00 0.00 0.00 71 1020.2
20260507065907 18 248 0.0 1.6 0.00 0.00 0.00 73 1020.3
20260507065404 18 279 0.0 1.6 0.00 0.00 0.00 72 1020.4
20260507064404 19 231 0.0 4.8 0.00 0.00 0.00 72 1020.5
20260507063905 19 248 0.0 4.8 0.00 0.00 0.00 71 1020.5
20260507062403 20 280 1.6 4.8 0.00 0.00 0.00 70 1020.5
20260507061906 20 275 1.6 4.8 0.00 0.00 0.00 68 1020.4
20260507060903 21 300 1.6 3.2 0.00 0.00 0.00 64 1020.2
20260507060404 21 238 0.0 3.2 0.00 0.00 0.00 65 1020.2
20260507055405 21 201 0.0 1.6 0.00 0.00 0.00 64 1020.1
20260507054903 21 203 0.0 1.6 0.00 0.00 0.00 66 1020.0
20260507053904 20 205 0.0 3.2 0.00 0.00 0.00 69 1020.0
20260507053405 20 249 1.6 3.2 0.00 0.00 0.00 68 1020.1
20260507052406 20 329 0.0 1.6 0.00 0.00 0.00 67 1019.9
20260507051904 19 38 0.0 0.0 0.00 0.00 0.00 68 1019.9
20260507050903 19 38 0.0 0.0 0.00 0.00 0.00 67 1019.8
20260507050405 19 38 0.0 0.0 0.00 0.00 0.00 70 1019.8
20260507045403 18 39 0.0 0.0 0.00 0.00 0.00 69 1019.8
20260507044903 18 39 0.0 0.0 0.00 0.00 0.00 69 1019.9
20260507044405 18 39 0.0 0.0 0.00 0.00 0.00 70 1019.8
20260507043903 18 39 0.0 0.0 0.00 0.00 0.00 72 1019.8
20260507042903 17 39 0.0 0.0 0.00 0.00 0.00 76 1019.8
20260507042405 16 39 0.0 0.0 0.00 0.00 0.00 79 1019.9
20260507041903 15 39 0.0 0.0 0.00 0.00 0.00 81 1019.8
20260507040904 13 39 0.0 0.0 0.00 0.00 0.00 82 1019.7
20260507040404 13 39 0.0 0.0 0.00 0.00 0.00 81 1019.7
20260507035904 13 39 0.0 0.0 0.00 0.00 0.00 81 1019.7
20260507035404 13 39 0.0 0.0 0.00 0.00 0.00 81 1019.6
20260507034904 13 39 0.0 0.0 0.00 0.00 0.00 81 1019.6
20260507034405 13 39 0.0 0.0 0.00 0.00 0.00 81 1019.5
20260507033903 13 39 0.0 0.0 0.00 0.00 0.00 81 1019.4
20260507033403 13 39 0.0 0.0 0.00 0.00 0.00 82 1019.4
20260507032904 13 39 0.0 0.0 0.00 0.00 0.00 82 1019.4
20260507032406 13 39 0.0 0.0 0.00 0.00 0.00 82 1019.3
20260507031905 13 39 0.0 0.0 0.00 0.00 0.00 82 1019.3
20260507031403 13 39 0.0 0.0 0.00 0.00 0.00 82 1019.3
20260507030904 13 39 0.0 0.0 0.00 0.00 0.00 82 1019.4
20260507030404 13 39 0.0 0.0 0.00 0.00 0.00 82 1019.3
20260507025904 13 39 0.0 0.0 0.00 0.00 0.00 83 1019.3
20260507025405 13 39 0.0 0.0 0.00 0.00 0.00 83 1019.3
20260507024903 13 39 0.0 0.0 0.00 0.00 0.00 83 1019.2
20260507024403 13 39 0.0 0.0 0.00 0.00 0.00 83 1019.2
20260507023903 14 39 0.0 0.0 0.00 0.00 0.00 83 1019.1
20260507023405 14 39 0.0 1.6 0.00 0.00 0.00 84 1019.1
20260507022905 13 39 0.0 1.6 0.00 0.00 0.00 84 1019.0
20260507022405 13 32 0.0 1.6 0.00 0.00 0.00 85 1018.9
20260507021904 13 27 0.0 0.0 0.00 0.00 0.00 85 1018.9
20260507021406 13 27 0.0 0.0 0.00 0.00 0.00 84 1019.1
20260507020904 13 27 0.0 0.0 0.00 0.00 0.00 84 1019.1
20260507020406 13 27 0.0 0.0 0.00 0.00 0.00 84 1019.1
20260507015904 13 27 0.0 1.6 0.00 0.00 0.00 84 1019.0
20260507014906 14 27 0.0 1.6 0.00 0.00 0.00 84 1018.8
20260507014404 14 27 0.0 3.2 0.00 0.00 0.00 84 1018.9
20260507013904 13 27 0.0 3.2 0.00 0.00 0.00 85 1018.8
20260507012905 13 22 0.0 1.6 0.00 0.00 0.00 86 1018.9
20260507011903 13 17 0.0 1.6 0.00 0.00 0.00 86 1018.9
20260507011403 13 17 0.0 0.0 0.00 0.00 0.00 86 1018.9
20260507010906 13 17 0.0 0.0 0.00 0.00 0.00 86 1018.8
20260507010403 13 17 0.0 0.0 0.00 0.00 0.00 85 1018.8
20260507005904 13 17 0.0 0.0 0.00 0.00 0.00 85 1018.8
20260507005406 13 17 0.0 0.0 0.00 0.00 0.00 85 1018.8
20260507004904 13 16 0.0 1.6 0.00 0.00 0.00 85 1018.7
20260507004405 13 17 0.0 1.6 0.00 0.00 0.00 85 1018.6
20260507003904 13 23 0.0 0.0 0.00 0.00 0.00 85 1018.5
20260507003404 14 23 0.0 0.0 0.00 0.00 0.00 85 1018.5
20260507002916 14 23 0.0 0.0 0.00 0.00 0.00 85 1018.4
20260507002404 14 23 0.0 1.6 0.00 0.00 0.00 84 1018.4
20260507001903 14 23 0.0 1.6 0.00 0.00 0.00 85 1018.4
20260507001403 14 23 0.0 1.6 0.00 0.00 0.00 85 1018.4
20260507000904 14 20 1.6 1.6 0.00 0.00 0.00 85 1018.4
20260506235904 14 37 0.0 1.6 0.00 0.00 0.00 86 1018.7
20260506234904 13 37 0.0 1.6 0.00 0.00 0.00 86 1018.8
20260506234405 14 37 0.0 0.0 0.00 0.00 0.00 87 1019.0
20260506233905 14 37 0.0 0.0 0.00 0.00 0.00 86 1019.0
20260506233405 14 37 0.0 0.0 0.00 0.00 0.00 86 1018.9
20260506232904 14 37 0.0 0.0 0.00 0.00 0.00 86 1018.9
20260506232403 14 37 0.0 0.0 0.00 0.00 0.00 86 1018.9
20260506231404 14 37 0.0 0.0 0.00 0.00 0.00 86 1018.8
20260506230905 14 37 0.0 0.0 0.00 0.00 0.00 86 1018.8
20260506230404 14 37 0.0 0.0 0.00 0.00 0.00 86 1018.8
20260506225904 14 37 0.0 0.0 0.00 0.00 0.00 86 1018.9
20260506225404 14 37 0.0 0.0 0.00 0.00 0.00 86 1018.8
20260506224905 14 37 0.0 0.0 0.00 0.00 0.00 86 1019.0
20260506224404 14 37 0.0 0.0 0.00 0.00 0.00 86 1018.9
20260506223904 15 37 0.0 0.0 0.00 0.00 0.00 86 1018.9
20260506223406 15 37 0.0 0.0 0.00 0.00 0.00 86 1018.9
20260506222904 15 37 0.0 0.0 0.00 0.00 0.00 86 1019.0
20260506222404 15 37 0.0 0.0 0.00 0.00 0.00 86 1018.9
20260506221904 15 37 0.0 0.0 0.00 0.00 0.00 86 1018.9
20260506221405 15 37 0.0 0.0 0.00 0.00 0.00 86 1018.9
20260506220904 15 37 0.0 0.0 0.00 0.00 0.00 86 1018.9
20260506220404 15 37 0.0 1.6 0.00 0.00 0.00 86 1018.9
20260506215905 15 37 0.0 3.2 0.00 0.00 0.00 86 1018.9
20260506215404 15 37 0.0 3.2 0.00 0.00 0.00 86 1018.9
20260506214903 15 32 0.0 1.6 0.00 0.00 0.00 86 1018.9
20260506213403 15 38 0.0 3.2 0.00 0.00 0.00 86 1019.0
20260506211904 15 32 0.0 1.6 0.00 0.00 0.00 85 1019.1
20260506211404 15 32 0.0 1.6 0.00 0.00 0.00 85 1019.1
20260506210904 15 22 0.0 1.6 0.00 0.00 0.00 85 1019.1
20260506205906 16 22 0.0 1.6 0.00 0.00 0.00 85 1019.2
20260506204904 16 11 0.0 1.6 0.00 0.00 0.00 85 1019.2
20260506204405 16 11 0.0 1.6 0.00 0.00 0.00 85 1019.1
20260506203904 16 11 0.0 1.6 0.00 0.00 0.00 85 1019.1
20260506203404 16 11 0.0 1.6 0.00 0.00 0.00 85 1019.0
20260506202904 16 11 0.0 0.0 0.00 0.00 0.00 85 1019.0
20260506202405 16 11 0.0 0.0 0.00 0.00 0.00 84 1018.9
20260506201903 16 11 0.0 0.0 0.00 0.00 0.00 84 1018.9
20260506201404 16 11 0.0 0.0 0.00 0.00 0.00 85 1018.9
20260506200905 16 11 0.0 1.6 0.00 0.00 0.00 84 1018.9
20260506200404 16 11 0.0 1.6 0.00 0.00 0.00 84 1019.0
20260506195904 16 12 0.0 1.6 0.00 0.00 0.00 84 1018.9
20260506195404 16 12 0.0 1.6 0.00 0.00 0.00 84 1018.9
20260506194903 16 12 0.0 1.6 0.00 0.00 0.00 84 1018.7
20260506193906 16 0 0.0 0.0 0.00 0.00 0.00 83 1018.6
20260506193403 16 1 0.0 0.0 0.00 0.00 0.00 83 1018.5
20260506192905 16 1 0.0 0.0 0.00 0.00 0.00 83 1018.6
20260506192403 16 1 0.0 0.0 0.00 0.00 0.00 83 1018.5
20260506191904 16 1 0.0 0.0 0.00 0.00 0.00 83 1018.5
20260506191404 16 1 0.0 0.0 0.00 0.00 0.00 83 1018.5
20260506190905 16 1 0.0 0.0 0.00 0.00 0.00 84 1018.5
20260506185903 16 1 0.0 1.6 0.00 0.00 0.00 84 1018.5
20260506185403 16 2 0.0 1.6 0.00 0.00 0.00 83 1018.4
20260506184404 16 352 0.0 1.6 0.00 0.00 0.00 83 1018.4
20260506183904 16 349 0.0 1.6 0.00 0.00 0.00 83 1018.3
20260506183404 17 348 0.0 1.6 0.00 0.00 0.00 83 1018.2
20260506182905 17 348 0.0 1.6 0.00 0.00 0.00 83 1018.2
20260506181904 17 306 0.0 1.6 0.00 0.00 0.00 83 1018.0
20260506181403 17 275 0.0 1.6 0.00 0.00 0.00 82 1017.9
20260506180903 17 233 0.0 0.0 0.00 0.00 0.00 82 1018.0
20260506180403 17 233 0.0 0.0 0.00 0.00 0.00 81 1017.9
20260506175903 17 233 0.0 0.0 0.00 0.00 0.00 81 1017.8
20260506175404 17 233 0.0 0.0 0.00 0.00 0.00 80 1017.7
20260506174904 17 233 0.0 0.0 0.00 0.00 0.00 80 1017.7
20260506174405 17 233 0.0 0.0 0.00 0.00 0.00 80 1017.7
20260506173904 18 233 0.0 0.0 0.00 0.00 0.00 79 1017.5
20260506173404 18 233 0.0 1.6 0.00 0.00 0.00 78 1017.5
20260506172904 18 233 0.0 1.6 0.00 0.00 0.00 77 1017.4
20260506172405 19 233 0.0 1.6 0.00 0.00 0.00 76 1017.5
20260506171903 20 197 0.0 1.6 0.00 0.00 0.00 75 1017.4
20260506171403 20 196 0.0 1.6 0.00 0.00 0.00 73 1017.4
20260506170906 20 229 0.0 0.0 0.00 0.00 0.00 72 1017.4
20260506165904 21 229 0.0 3.2 0.00 0.00 0.00 70 1017.4
20260506165404 22 221 1.6 3.2 0.00 0.00 0.00 68 1017.4
20260506164904 22 208 0.0 4.8 0.00 0.00 0.00 68 1017.3
20260506164405 22 218 1.6 4.8 0.00 0.00 0.00 67 1017.3
20260506163904 22 197 1.6 4.8 0.00 0.00 0.00 66 1017.4
20260506162906 23 221 3.2 4.8 0.00 0.00 0.00 63 1017.4
20260506161903 24 206 3.2 11.3 0.00 0.00 0.00 56 1017.4
20260506161405 25 217 3.2 11.3 0.00 0.00 0.00 48 1017.3
20260506160405 25 207 3.2 11.3 0.00 0.00 0.00 46 1017.3
20260506154404 25 219 3.2 9.7 0.00 0.00 0.00 52 1017.3
20260506153405 26 215 3.2 9.7 0.00 0.00 0.00 50 1017.4
20260506152904 26 217 3.2 11.3 0.00 0.00 0.00 48 1017.4
20260506152404 25 194 4.8 14.5 0.00 0.00 0.00 45 1017.5
20260506151905 25 207 8.0 14.5 0.00 0.00 0.00 46 1017.4
20260506151403 26 203 6.4 14.5 0.00 0.00 0.00 45 1017.4
20260506150404 26 165 1.6 8.0 0.00 0.00 0.00 46 1017.4
20260506145903 26 203 1.6 12.9 0.00 0.00 0.00 46 1017.3
20260506145404 26 198 3.2 12.9 0.00 0.00 0.00 46 1017.4
20260506144403 26 208 3.2 9.7 0.00 0.00 0.00 45 1017.5
20260506143903 26 199 3.2 9.7 0.00 0.00 0.00 46 1017.5
20260506143403 26 224 3.2 14.5 0.00 0.00 0.00 46 1017.6
20260506142903 26 196 8.0 14.5 0.00 0.00 0.00 46 1017.6
20260506142404 26 196 4.8 12.9 0.00 0.00 0.00 46 1017.6
20260506141904 26 202 4.8 12.9 0.00 0.00 0.00 47 1017.6
20260506141404 26 208 8.0 12.9 0.00 0.00 0.00 45 1017.6
20260506140406 26 212 3.2 14.5 0.00 0.00 0.00 43 1017.7
20260506135904 26 196 3.2 14.5 0.00 0.00 0.00 44 1017.7
20260506135405 26 174 4.8 16.1 0.00 0.00 0.00 45 1017.7
20260506134904 26 200 4.8 16.1 0.00 0.00 0.00 44 1017.7
20260506133903 26 217 1.6 16.1 0.00 0.00 0.00 47 1017.8
20260506133405 26 216 4.8 14.5 0.00 0.00 0.00 45 1017.9
20260506132903 26 201 4.8 14.5 0.00 0.00 0.00 44 1017.9
20260506132404 26 202 4.8 19.3 0.00 0.00 0.00 42 1017.9
20260506131906 26 217 4.8 19.3 0.00 0.00 0.00 42 1018.0